[[{"header":{"parameterUnit":"m.s-1","parameterCategory":1,"la1":30.2991,"la2":30.254,"lo1":-89.0895,"lo2":-89.0444,"dy":0.0017,"dx":0.0017,"nx":28,"ny":28,"refTime":"2025-01-28T03:00:00:Z","depth":0,"parameterNumber":2,"parameterNumberName":"U-component_of_WINDS"},"data":[0,0,0,0,0,0,0,0,0,0,0,0,0,0,0,0,0,0,0,0,0,0,0,0,0,0,0,0,0,0,0,0,0,0,0,0,0,0,0,0,0,0,0,0,0,0,0,0,0,0,0,0,0,0,0,0,0,0,0.2036,0.2036,0,0.2084,0.2084,0.2085,0.2107,0.2107,0.2107,0.2107,0.2156,0.2157,0.2159,0,0,0,0,0,0,0,0,0,0,0,0,0,0.1963,0.1965,0.2036,0.2036,0.2037,0.2084,0.2084,0.2085,0.2107,0.2107,0.2107,0.2107,0.2156,0.2157,0.2159,0,0,0,0,0,0,0,0,0,0,0,0,0,0.2001,0.1965,0.2036,0.2054,0.2056,0.2084,0.2084,0.2085,0.2107,0.2107,0.2107,0.2107,0.2155,0.2157,0.2159,0.2173,0,0,0.2165,0.2166,0,0,0,0,0,0,0,0,0.1999,0.2004,0.205,0.2052,0.2055,0.209,0.2077,0.2115,0.2107,0.2088,0.2107,0.2107,0.2134,0.2138,0.2147,0.2175,0.2177,0.2165,0.2167,0.2168,0.2168,0,0,0,0,0,0,0,0.1997,0.2002,0.2055,0.2051,0.2054,0.2059,0.2065,0.2084,0.2111,0.2089,0.2091,0.2097,0.2135,0.2145,0.2148,0.2178,0.2165,0.2167,0.2168,0.2169,0.2221,0.2221,0,0,0,0,0,0,0.1991,0.2,0.2053,0.2056,0.2026,0.2061,0.2067,0.2078,0.211,0.2115,0.2097,0.2097,0.2142,0.2146,0.215,0.2169,0.2168,0.2169,0.2171,0.2221,0.2221,0.2221,0,0,0,0,0,0,0.1989,0.1996,0.2051,0.2029,0.2036,0.2062,0.2075,0.2079,0.2089,0.2116,0.2121,0.2102,0.2142,0.2147,0.2167,0.2171,0.217,0.2172,0.222,0.2221,0.2221,0.2205,0,0,0,0,0,0,0.1987,0.1995,0.2,0.2028,0.2037,0.2067,0.2075,0.208,0.2093,0.2094,0.2122,0.2126,0.2142,0.2164,0.2169,0.2173,0.2174,0.222,0.2221,0.2221,0.2206,0.2205,0.2205,0,0,0,0,0,0.1985,0.1993,0.2,0.2006,0.2044,0.2067,0.2072,0.209,0.2093,0.2098,0.2116,0.2125,0.217,0.2166,0.2172,0.2177,0.222,0.222,0.2221,0.2206,0.2205,0.2205,0,0,0,0,0,0,0.1964,0.1997,0.2005,0.2023,0.2043,0.2071,0.2079,0.2089,0.2107,0.2108,0.213,0.2136,0.2154,0.2167,0.2163,0.2192,0.2196,0.2197,0.2182,0.2182,0.2181,0.2178,0.2175,0,0,0,0,0,0.1962,0.1978,0.2006,0.202,0.2029,0.2052,0.2063,0.2075,0.2096,0.2104,0.2123,0.2142,0.2161,0.2172,0.219,0.2208,0.2215,0.2215,0.2214,0.2213,0.2214,0.2226,0.2226,0.2222,0.2222,0.2222,0,0,0.1957,0.1977,0.1986,0.2016,0.2032,0.2049,0.2059,0.2075,0.2088,0.2106,0.2126,0.2141,0.2164,0.2184,0.2193,0.2195,0.2217,0.2214,0.2213,0.2214,0.2226,0.2226,0.2227,0.2222,0.2222,0.2222,0,0,0.1956,0.1973,0.1987,0.2003,0.2028,0.2043,0.2047,0.2074,0.2085,0.2105,0.212,0.2135,0.2166,0.2183,0.2195,0.2203,0.2212,0.2208,0.2205,0.2215,0.2216,0.2216,0.2219,0.222,0.2209,0.2209,0.2209,0,0.1947,0.1972,0.1992,0.2008,0.2022,0.204,0.2054,0.2069,0.2098,0.2107,0.2109,0.215,0.2166,0.219,0.2192,0.2201,0.2206,0.2205,0.2214,0.2215,0.2215,0.2218,0.2219,0.2208,0.2208,0.2208,0.2209,0,0.196,0.1977,0.1985,0.2014,0.2028,0.2043,0.2065,0.2077,0.2089,0.2104,0.2126,0.2147,0.2171,0.2177,0.2188,0.2203,0.2204,0.221,0.2214,0.2215,0.2218,0.2219,0.2207,0.2208,0.2208,0.2208,0,0,0.1946,0.1987,0.1989,0.2003,0.2032,0.2046,0.2063,0.2086,0.2096,0.2116,0.213,0.2157,0.2164,0.2178,0.2191,0.22,0.2206,0.2206,0.2207,0.2205,0.2224,0.2219,0.222,0.2213,0.2213,0.2213,0.2222,0,0.195,0.198,0.1999,0.2021,0.2038,0.2057,0.2071,0.2091,0.2106,0.2123,0.214,0.2159,0.2166,0.2174,0.2185,0.2203,0.221,0.2203,0.2227,0.2227,0.222,0.2221,0.2216,0.2222,0.2223,0.2223,0.2224,0,0.1958,0.1978,0.2002,0.2031,0.2038,0.2051,0.2074,0.209,0.2113,0.2124,0.2141,0.2155,0.2173,0.2176,0.2202,0.2197,0.2209,0.2219,0.222,0.2222,0.2225,0.2224,0.2225,0.2226,0.2226,0.2226,0.2225,0,0.1946,0.1979,0.1998,0.2009,0.2043,0.2051,0.2066,0.2089,0.2102,0.2123,0.2132,0.2155,0.2167,0.2184,0.2204,0.2204,0.2229,0.2233,0.2238,0.2238,0.2242,0.2241,0.2244,0.2249,0.2249,0.2249,0.2249,0,0.1947,0.1961,0.1993,0.2005,0.2021,0.2044,0.206,0.2076,0.2097,0.2112,0.213,0.2144,0.2169,0.2187,0.2203,0.2223,0.2228,0.2237,0.2241,0.2235,0.2234,0.2243,0.2243,0.225,0.225,0.225,0.225,0,0.1936,0.1958,0.198,0.2011,0.2019,0.203,0.2056,0.2068,0.2085,0.2105,0.2111,0.2137,0.2159,0.2181,0.221,0.2221,0.224,0.2246,0.2232,0.2234,0.2238,0.2238,0.2247,0.2249,0.2253,0.2253,0.2252,0,0.1935,0.1946,0.1979,0.1991,0.2005,0.2024,0.2037,0.206,0.2074,0.2102,0.2111,0.2135,0.2154,0.2188,0.221,0.2233,0.2239,0.2241,0.2243,0.2237,0.2239,0.2238,0.224,0.224,0.224,0.224,0.2239,0,0.1932,0.1942,0.1962,0.1985,0.2001,0.2021,0.2041,0.205,0.2077,0.2092,0.2114,0.2129,0.216,0.2183,0.2208,0.2224,0.2236,0.2239,0.2241,0.2235,0.2227,0.2232,0.223,0.2238,0.2239,0.2239,0.2239,0.2239,0.1926,0.1937,0.1962,0.1983,0.2001,0.202,0.2033,0.2052,0.2072,0.2098,0.2111,0.2134,0.2158,0.2194,0.2209,0.2228,0.2231,0.2235,0.2235,0.2236,0.2235,0.2225,0.2233,0.2233,0.2233,0.2233,0.2233,0,0.1923,0.194,0.196,0.1988,0.2005,0.2016,0.2039,0.2053,0.2073,0.2095,0.2114,0.2141,0.2163,0.2188,0.2212,0.2222,0.2229,0.2228,0.2227,0.2231,0.223,0.2226,0.2222,0.2222,0.2222,0.2222,0.2222,0.2222,0.1923,0.1943,0.1957,0.1987,0.2004,0.2027,0.2039,0.2057,0.2075,0.2104,0.2123,0.2139,0.2162,0.2189,0.2211,0.2217,0.2225,0.2223,0.2231,0.223,0.2231,0.2231,0.2227,0.2224,0.2224,0.223,0.223,0.223]},{"header":{"parameterUnit":"m.s-1","parameterCategory":1,"la1":30.2991,"la2":30.254,"lo1":-89.0895,"lo2":-89.0444,"dy":0.0017,"dx":0.0017,"nx":28,"ny":28,"refTime":"2025-01-28T03:00:00:Z","depth":0,"parameterNumber":3,"parameterNumberName":"V-component_of_WINDS"},"data":[0,0,0,0,0,0,0,0,0,0,0,0,0,0,0,0,0,0,0,0,0,0,0,0,0,0,0,0,0,0,0,0,0,0,0,0,0,0,0,0,0,0,0,0,0,0,0,0,0,0,0,0,0,0,0,0,0,0,-0.3106,-0.3106,0,-0.3107,-0.3107,-0.3107,-0.3086,-0.3086,-0.3085,-0.3084,-0.3085,-0.3086,-0.3086,0,0,0,0,0,0,0,0,0,0,0,0,0,-0.3085,-0.3086,-0.3106,-0.3106,-0.3106,-0.3107,-0.3107,-0.3107,-0.3086,-0.3086,-0.3085,-0.3084,-0.3085,-0.3086,-0.3086,0,0,0,0,0,0,0,0,0,0,0,0,0,-0.3091,-0.3086,-0.3106,-0.3096,-0.3095,-0.3107,-0.3107,-0.3107,-0.3086,-0.3086,-0.3085,-0.3084,-0.3085,-0.3086,-0.3087,-0.3108,0,0,-0.3089,-0.3089,0,0,0,0,0,0,0,0,-0.3091,-0.3092,-0.3097,-0.3096,-0.3095,-0.3095,-0.31,-0.3107,-0.3087,-0.3089,-0.3084,-0.3083,-0.3089,-0.309,-0.3092,-0.3108,-0.3108,-0.3089,-0.309,-0.309,-0.309,0,0,0,0,0,0,0,-0.309,-0.3092,-0.3106,-0.3097,-0.3096,-0.3091,-0.3091,-0.3101,-0.3094,-0.3089,-0.3088,-0.3088,-0.3089,-0.3091,-0.3092,-0.3108,-0.3089,-0.309,-0.309,-0.3091,-0.3143,-0.3144,0,0,0,0,0,0,-0.3091,-0.3091,-0.3106,-0.3106,-0.3091,-0.3092,-0.3092,-0.3096,-0.3094,-0.3093,-0.3089,-0.3087,-0.309,-0.3091,-0.3092,-0.3117,-0.309,-0.3091,-0.3091,-0.3142,-0.3143,-0.3144,0,0,0,0,0,0,-0.3091,-0.3093,-0.3106,-0.3098,-0.31,-0.3093,-0.3098,-0.3097,-0.3099,-0.3094,-0.3092,-0.3093,-0.3089,-0.309,-0.3104,-0.3117,-0.3091,-0.3092,-0.3141,-0.3143,-0.3144,-0.3168,0,0,0,0,0,0,-0.3091,-0.3093,-0.3101,-0.3099,-0.31,-0.3119,-0.3099,-0.3097,-0.3101,-0.3098,-0.3097,-0.3096,-0.3089,-0.3103,-0.3105,-0.3117,-0.3092,-0.314,-0.3142,-0.3143,-0.3166,-0.317,-0.3174,0,0,0,0,0,-0.309,-0.3108,-0.3102,-0.3104,-0.311,-0.312,-0.312,-0.3112,-0.3102,-0.311,-0.3106,-0.3096,-0.3115,-0.3105,-0.3107,-0.312,-0.3139,-0.3141,-0.3143,-0.3165,-0.3169,-0.3173,0,0,0,0,0,0,-0.3112,-0.3107,-0.31,-0.3118,-0.3119,-0.3116,-0.3126,-0.3118,-0.3122,-0.312,-0.3109,-0.3109,-0.3125,-0.3123,-0.3112,-0.3141,-0.3125,-0.3128,-0.3141,-0.3145,-0.3149,-0.3149,-0.3093,0,0,0,0,0,-0.3118,-0.3126,-0.3122,-0.3138,-0.3139,-0.3133,-0.3136,-0.313,-0.3131,-0.3131,-0.3129,-0.313,-0.3136,-0.3141,-0.3146,-0.3166,-0.3165,-0.3176,-0.3179,-0.3182,-0.3185,-0.3195,-0.32,-0.3151,-0.3151,-0.3151,0,0,-0.3133,-0.3131,-0.3137,-0.3143,-0.3143,-0.3151,-0.3133,-0.3143,-0.3149,-0.3133,-0.3146,-0.3144,-0.3145,-0.3162,-0.3169,-0.3161,-0.3198,-0.3185,-0.3188,-0.3188,-0.3198,-0.3202,-0.3206,-0.3152,-0.3152,-0.3152,0,0,-0.3163,-0.3163,-0.3176,-0.3177,-0.3177,-0.3173,-0.3176,-0.3174,-0.3173,-0.3186,-0.3174,-0.3181,-0.3192,-0.3193,-0.3195,-0.3226,-0.3217,-0.3228,-0.3247,-0.3258,-0.3262,-0.3265,-0.3276,-0.328,-0.3231,-0.3231,-0.3231,0,-0.318,-0.3192,-0.3184,-0.3194,-0.3197,-0.3183,-0.3197,-0.3198,-0.32,-0.3203,-0.3194,-0.3208,-0.3207,-0.3224,-0.3232,-0.3234,-0.3237,-0.3228,-0.3262,-0.3265,-0.3268,-0.3279,-0.3283,-0.3232,-0.3232,-0.3232,-0.3232,0,-0.3214,-0.3223,-0.3233,-0.3236,-0.3241,-0.3253,-0.3246,-0.3251,-0.3244,-0.3241,-0.3254,-0.3253,-0.3259,-0.3262,-0.3256,-0.3279,-0.3274,-0.3264,-0.3248,-0.3274,-0.3284,-0.3288,-0.3234,-0.3234,-0.3233,-0.3233,0,0,-0.3257,-0.3256,-0.326,-0.3261,-0.3261,-0.3268,-0.3279,-0.3284,-0.3289,-0.3291,-0.3301,-0.3311,-0.3302,-0.3304,-0.3298,-0.3307,-0.3332,-0.3295,-0.3295,-0.3302,-0.3357,-0.3364,-0.3369,-0.3325,-0.3326,-0.3327,-0.3357,0,-0.3286,-0.3306,-0.3299,-0.3319,-0.3327,-0.3314,-0.3324,-0.3325,-0.3322,-0.3329,-0.3325,-0.3333,-0.332,-0.3321,-0.333,-0.3327,-0.3342,-0.3325,-0.3334,-0.3334,-0.3334,-0.3374,-0.3382,-0.341,-0.336,-0.3361,-0.3361,0,-0.3323,-0.3327,-0.3348,-0.3347,-0.335,-0.3359,-0.3364,-0.337,-0.3371,-0.3368,-0.3371,-0.3363,-0.3374,-0.3359,-0.3374,-0.3363,-0.3366,-0.3365,-0.3366,-0.3366,-0.3349,-0.3376,-0.3419,-0.3423,-0.3367,-0.3367,-0.3366,0,-0.3352,-0.3363,-0.3377,-0.3379,-0.3378,-0.3385,-0.3385,-0.3385,-0.3389,-0.3393,-0.3395,-0.34,-0.3403,-0.3407,-0.3401,-0.339,-0.3417,-0.3401,-0.3415,-0.3415,-0.3421,-0.3421,-0.3466,-0.3424,-0.3424,-0.3424,-0.3423,0,-0.3386,-0.3399,-0.339,-0.3399,-0.3414,-0.3405,-0.342,-0.3418,-0.3419,-0.3427,-0.3416,-0.3424,-0.3415,-0.3422,-0.3417,-0.3431,-0.3432,-0.343,-0.3429,-0.3431,-0.3431,-0.3433,-0.3431,-0.3425,-0.3424,-0.3424,-0.3424,0,-0.3421,-0.3416,-0.343,-0.3428,-0.3428,-0.3439,-0.3437,-0.3445,-0.3442,-0.3452,-0.3454,-0.3449,-0.3457,-0.3451,-0.3458,-0.3455,-0.3473,-0.3469,-0.3473,-0.3472,-0.3486,-0.3485,-0.3534,-0.354,-0.3494,-0.3494,-0.3495,0,-0.3442,-0.3452,-0.3452,-0.3456,-0.3457,-0.3465,-0.3469,-0.3461,-0.3466,-0.3468,-0.3476,-0.3483,-0.3488,-0.3501,-0.3498,-0.3503,-0.3499,-0.3516,-0.35,-0.3502,-0.35,-0.3499,-0.35,-0.3519,-0.352,-0.352,-0.352,0,-0.3481,-0.3478,-0.3484,-0.349,-0.3495,-0.3499,-0.3502,-0.3506,-0.3498,-0.3504,-0.3512,-0.3516,-0.3524,-0.3531,-0.3536,-0.3536,-0.3527,-0.3526,-0.3529,-0.3532,-0.3534,-0.3533,-0.3482,-0.3524,-0.3524,-0.3524,-0.3524,-0.3523,-0.351,-0.3518,-0.3519,-0.3527,-0.3528,-0.3531,-0.3539,-0.3537,-0.3543,-0.3549,-0.3544,-0.3554,-0.3555,-0.3561,-0.3562,-0.3569,-0.3562,-0.3567,-0.3569,-0.357,-0.3572,-0.3533,-0.357,-0.357,-0.357,-0.357,-0.357,0,-0.3548,-0.3548,-0.3555,-0.356,-0.3566,-0.3557,-0.356,-0.3566,-0.3574,-0.3576,-0.3582,-0.3591,-0.3598,-0.3596,-0.3602,-0.3608,-0.3604,-0.361,-0.3609,-0.361,-0.3578,-0.3574,-0.3613,-0.3613,-0.3613,-0.3613,-0.3613,-0.3613,-0.3568,-0.3582,-0.358,-0.3594,-0.3594,-0.3604,-0.3606,-0.3609,-0.3611,-0.3622,-0.3628,-0.3626,-0.3627,-0.3633,-0.3639,-0.3638,-0.3641,-0.3648,-0.3646,-0.3616,-0.3612,-0.3608,-0.3604,-0.3649,-0.3649,-0.3677,-0.3677,-0.3677]}]]